Location: ??????
(38.3184°N, 23.6932°E)
Time: 01:32:41
(UTC+00:00)

Cosmos 1980 Rocket - Pass Details

Date: 16 October 2021
Orbit: 828 x 851 km, 71.0° (Epoch: 04 December)

Event Time Altitude Azimuth Distance (km) Brightness Sun altitude
Rises 17:13:50 0° 213° (SSW) 3,371 5.8 -18.0°
Reaches altitude 10° 17:16:19 10° 218° (SW) 2,444 5.1 -18.5°
Maximum altitude 17:21:48 55° 296° (WNW) 1,008 2.9 -19.6°
Drops below altitude 10° 17:27:22 10° 14° (NNE) 2,474 4.5 -20.7°
Sets 17:29:54 0° 19° (NNE) 3,416 5.2 -21.2°
